Tracking 19854 objects as of 21-Sep-2019
HD Live streaming from Space Station
objects crossing your sky now

SL-8 DEB

Track SL-8 DEB now!
10-day predictions


NORAD ID: 1392
Int'l Code: 1965-020AH
Perigee: 495.6 km
Apogee: 985.8 km
Inclination: 55.9 °
Period: 99.5 minutes
Semi major axis: 7111 km
RCS: 0.2042 m2 (medium)
Launch date: March 15, 1965
Source: Commonwealth of Independent States (former USSR) (CIS)
Launch site: TYURATAM MISSILE AND SPACE COMPLEX (TTMTR)

Note: This is SATELLITE DEBRIS
aabbcc
Your satellite tracking list
Your tracking list is empty




NASA's NSSDC Master Catalog

Two Line Element Set (TLE):
1  1392U 65020AH  19264.38893990 -.00000043  00000-0  27980-4 0  9997
2  1392  55.8803 171.3125 0344632 153.4379 208.4747 14.47592293735306
Source of the keplerian elements: AFSPC